• In Germany
  • List of Countries
  • For 7 days
  • Water Temperature
  • Satellite Maps
  • Weather Map
  • Weather Widgets
  • user-avatar
    Login

    Hourly Weather Jerusalem

    Today, 20 October, Saturday

    Time Temperature Precipitation Wind Pressure Humidity
    00:00 +21°C° 0 mm 1 mps 694 mmHg 79%
    01:00 +20°C° 0 mm 1 mps 693 mmHg 80%
    02:00 +20°C° 0 mm 1 mps 693 mmHg 80%
    03:00 +20°C° 0 mm 1 mps 693 mmHg 81%
    04:00 +20°C° 0 mm 1 mps 693 mmHg 82%
    05:00 +17°C° 0 mm 0 mps 693 mmHg 83%
    06:00 +18°C° 0 mm 0 mps 694 mmHg 78%
    07:00 +21°C° 0 mm 1 mps 694 mmHg 74%
    08:00 +19°C° 0 mm 0 mps 694 mmHg 70%
    09:00 +22°C° 0 mm 1 mps 694 mmHg 64%
    10:00 +23°C° 0 mm 1 mps 694 mmHg 59%
    11:00 +24°C° 0 mm 2 mps 694 mmHg 53%
    12:00 +24°C° 0.1 mm 2 mps 694 mmHg 52%
    13:00 +25°C° 0.1 mm 2 mps 694 mmHg 52%
    14:00 +25°C° 0 mm 3 mps 694 mmHg 49%
    15:00 +25°C° 0.2 mm 3 mps 694 mmHg 52%
    16:00 +24°C° 0.2 mm 3 mps 694 mmHg 55%
    17:00 +22°C° 0.2 mm 3 mps 694 mmHg 58%
    18:00 +22°C° 0 mm 3 mps 694 mmHg 61%
    19:00 +21°C° 0 mm 2 mps 694 mmHg 63%
    20:00 +22°C° 0 mm 1 mps 694 mmHg 65%
    21:00 +21°C° 0 mm 1 mps 693 mmHg 67%
    22:00 +21°C° 0 mm 1 mps 693 mmHg 68%
    23:00 +21°C° 0 mm 1 mps 693 mmHg 70%

    Tomorrow, 21 October, Sunday

    Time Temperature Precipitation Wind Pressure Humidity
    00:00 +20°C° 0 mm 1 mps 693 mmHg 71%
    01:00 +20°C° 0 mm 1 mps 693 mmHg 72%
    02:00 +19°C° 0 mm 1 mps 693 mmHg 73%
    03:00 +19°C° 0 mm 1 mps 693 mmHg 73%
    04:00 +19°C° 0 mm 1 mps 692 mmHg 74%
    05:00 +18°C° 0 mm 1 mps 692 mmHg 74%
    06:00 +19°C° 0 mm 1 mps 693 mmHg 70%
    07:00 +19°C° 0 mm 2 mps 693 mmHg 65%
    08:00 +20°C° 0 mm 2 mps 693 mmHg 60%
    09:00 +21°C° 0 mm 2 mps 694 mmHg 57%
    10:00 +23°C° 0 mm 2 mps 694 mmHg 54%
    11:00 +24°C° 0 mm 2 mps 694 mmHg 50%
    12:00 +24°C° 0 mm 2 mps 694 mmHg 49%
    13:00 +24°C° 0 mm 2 mps 694 mmHg 48%
    14:00 +25°C° 0 mm 2 mps 694 mmHg 47%
    15:00 +24°C° 0 mm 2 mps 694 mmHg 50%
    16:00 +24°C° 0 mm 2 mps 694 mmHg 52%
    17:00 +23°C° 0 mm 1 mps 694 mmHg 55%
    18:00 +23°C° 0 mm 1 mps 694 mmHg 57%
    19:00 +22°C° 0 mm 1 mps 694 mmHg 58%
    20:00 +22°C° 0 mm 1 mps 694 mmHg 60%
    21:00 +22°C° 0 mm 1 mps 694 mmHg 61%
    22:00 +21°C° 0 mm 1 mps 695 mmHg 61%
    23:00 +21°C° 0 mm 1 mps 695 mmHg 61%

    Day after tomorrow, 22 October, Monday

    Time Temperature Precipitation Wind Pressure Humidity
    00:00 +21°C° 0 mm 1 mps 694 mmHg 60%
    01:00 +20°C° 0 mm 1 mps 694 mmHg 58%
    02:00 +20°C° 0 mm 1 mps 694 mmHg 57%
    03:00 +19°C° 0 mm 2 mps 694 mmHg 56%
    04:00 +19°C° 0 mm 2 mps 694 mmHg 54%
    05:00 +19°C° 0 mm 2 mps 694 mmHg 53%
    06:00 +20°C° 0 mm 2 mps 695 mmHg 48%
    07:00 +21°C° 0 mm 2 mps 695 mmHg 42%
    08:00 +22°C° 0 mm 3 mps 696 mmHg 37%
    09:00 +25°C° 0 mm 3 mps 696 mmHg 32%
    10:00 +26°C° 0 mm 3 mps 696 mmHg 26%
    11:00 +28°C° 0 mm 2 mps 696 mmHg 21%
    12:00 +28°C° 0 mm 2 mps 695 mmHg 20%
    13:00 +29°C° 0 mm 2 mps 695 mmHg 20%
    14:00 +29°C° 0 mm 2 mps 695 mmHg 19%
    15:00 +29°C° 0 mm 2 mps 694 mmHg 20%
    16:00 +28°C° 0 mm 1 mps 694 mmHg 22%
    17:00 +27°C° 0 mm 1 mps 694 mmHg 23%
    18:00 +27°C° 0 mm 2 mps 694 mmHg 23%
    19:00 +26°C° 0 mm 2 mps 694 mmHg 24%
    20:00 +25°C° 0 mm 2 mps 694 mmHg 24%
    21:00 +25°C° 0 mm 3 mps 694 mmHg 25%
    22:00 +25°C° 0 mm 3 mps 694 mmHg 25%
    23:00 +25°C° 0 mm 3 mps 694 mmHg 26%

    23 October, Tuesday

    Time Temperature Precipitation Wind Pressure Humidity
    00:00 +25°C° 0 mm 3 mps 694 mmHg 27%
    01:00 +24°C° 0 mm 3 mps 694 mmHg 28%
    02:00 +24°C° 0 mm 3 mps 693 mmHg 29%
    03:00 +24°C° 0 mm 2 mps 693 mmHg 30%
    04:00 +23°C° 0 mm 2 mps 693 mmHg 31%
    05:00 +23°C° 0 mm 2 mps 693 mmHg 32%
    06:00 +24°C° 0 mm 2 mps 694 mmHg 30%
    07:00 +25°C° 0 mm 2 mps 694 mmHg 29%
    08:00 +26°C° 0 mm 2 mps 694 mmHg 27%
    09:00 +27°C° 0 mm 2 mps 694 mmHg 24%
    10:00 +29°C° 0 mm 2 mps 695 mmHg 22%
    11:00 +30°C° 0 mm 3 mps 695 mmHg 19%
    12:00 +30°C° 0 mm 3 mps 694 mmHg 19%
    13:00 +31°C° 0 mm 3 mps 694 mmHg 18%
    14:00 +31°C° 0 mm 3 mps 693 mmHg 18%
    15:00 +30°C° 0 mm 2 mps 693 mmHg 21%
    16:00 +29°C° 0 mm 2 mps 693 mmHg 24%
    17:00 +28°C° 0 mm 1 mps 693 mmHg 28%
    18:00 +27°C° 0 mm 1 mps 693 mmHg 28%
    19:00 +27°C° 0 mm 1 mps 693 mmHg 27%
    20:00 +26°C° 0 mm 1 mps 693 mmHg 27%
    21:00 +26°C° 0 mm 1 mps 693 mmHg 27%
    22:00 +26°C° 0 mm 2 mps 693 mmHg 27%
    23:00 +25°C° 0 mm 2 mps 693 mmHg 27%

    24 October, Wednesday

    Time Temperature Precipitation Wind Pressure Humidity
    00:00 +25°C° 0 mm 2 mps 692 mmHg 28%
    01:00 +25°C° 0 mm 1 mps 692 mmHg 29%
    02:00 +24°C° 0 mm 1 mps 692 mmHg 30%
    03:00 +24°C° 0 mm 1 mps 692 mmHg 30%
    04:00 +24°C° 0 mm 2 mps 692 mmHg 31%
    05:00 +24°C° 0 mm 2 mps 692 mmHg 32%
    06:00 +24°C° 0 mm 2 mps 692 mmHg 32%
    07:00 +24°C° 0 mm 3 mps 692 mmHg 32%
    08:00 +24°C° 0 mm 3 mps 692 mmHg 33%
    09:00 +26°C° 0 mm 4 mps 692 mmHg 30%
    10:00 +27°C° 0 mm 4 mps 692 mmHg 28%
    11:00 +28°C° 0 mm 4 mps 692 mmHg 26%
    12:00 +28°C° 0 mm 5 mps 692 mmHg 27%
    13:00 +28°C° 0 mm 5 mps 691 mmHg 29%
    14:00 +28°C° 0 mm 5 mps 691 mmHg 30%
    15:00 +27°C° 0 mm 5 mps 691 mmHg 36%
    16:00 +26°C° 0 mm 4 mps 691 mmHg 42%
    17:00 +25°C° 0 mm 3 mps 690 mmHg 48%
    18:00 +24°C° 0 mm 2 mps 691 mmHg 50%
    19:00 +24°C° 0 mm 1 mps 691 mmHg 52%
    20:00 +23°C° 0 mm 1 mps 691 mmHg 54%
    21:00 +23°C° 0 mm 1 mps 691 mmHg 55%
    22:00 +23°C° 0 mm 1 mps 691 mmHg 56%
    23:00 +22°C° 0 mm 1 mps 691 mmHg 57%

    25 October, Thursday

    Time Temperature Precipitation Wind Pressure Humidity
    00:00 +22°C° 0 mm 1 mps 691 mmHg 56%
    01:00 +22°C° 0 mm 1 mps 690 mmHg 55%
    02:00 +20°C° 0 mm 2 mps 690 mmHg 54%
    03:00 +20°C° 0 mm 2 mps 690 mmHg 53%
    04:00 +20°C° 0 mm 3 mps 690 mmHg 52%
    05:00 +20°C° 0 mm 3 mps 690 mmHg 50%
    06:00 +21°C° 0 mm 3 mps 690 mmHg 46%
    07:00 +22°C° 0 mm 4 mps 690 mmHg 41%
    08:00 +23°C° 0 mm 5 mps 690 mmHg 37%
    09:00 +24°C° 0 mm 6 mps 690 mmHg 34%
    10:00 +26°C° 0 mm 7 mps 690 mmHg 31%
    11:00 +27°C° 0 mm 8 mps 690 mmHg 28%
    12:00 +27°C° 0 mm 9 mps 690 mmHg 29%
    13:00 +27°C° 0 mm 9 mps 690 mmHg 30%
    14:00 +26°C° 0 mm 10 mps 690 mmHg 31%
    15:00 +26°C° 0 mm 8 mps 690 mmHg 33%
    16:00 +24°C° 0 mm 7 mps 690 mmHg 34%
    17:00 +23°C° 0 mm 6 mps 690 mmHg 36%
    18:00 +22°C° 0 mm 5 mps 690 mmHg 42%
    19:00 +21°C° 0 mm 5 mps 690 mmHg 49%
    20:00 +21°C° 0 mm 4 mps 690 mmHg 55%
    21:00 +20°C° 0.1 mm 4 mps 690 mmHg 59%
    22:00 +20°C° 0.1 mm 5 mps 690 mmHg 62%
    23:00 +19°C° 0.1 mm 5 mps 690 mmHg 65%
    Show more